Regional Weather Roundup
Issued by NWS Northern Indiana

Home | Current Version | Previous Version | Graphics & Text | Print | Product List | Glossary On
Versions: 1 2 3 4 5 6 7 8 9 10 11 12 13 14 15 16 17 18 19 20 21 22 23 24 25 26 27 28 29 30 31 32 33 34 35 36 37 38 39 40 41 42 43 44 45 46 47 48 49 50
000
ASUS43 KIWX 161410
RWRIWX

KIWX WEATHER ROUNDUP
NATIONAL WEATHER SERVICE NORTHERN INDIANA
1000 AM EDT TUE SEP 16 2014

NOTE: "FAIR" INDICATES FEW OR NO CLOUDS BELOW 12,000 FEET WITH NO
SIGNIFICANT WEATHER AND/OR OBSTRUCTIONS TO VISIBILITY.

* THESE STATIONS ARE NOT UNDER NWS QUALITY CONTROL. THEY ALSO MAY NOT
  REPORT WEATHER SUCH AS PRECIPITATION OR FOG.

INZ001>027-161500-
NORTHERN INDIANA

CITY           SKY/WX    TMP DP  RH WIND       PRES   REMARKS
GARY*          MOSUNNY   57  50  77 W6        30.21S
VALPARAISO     MOSUNNY   56  49  77 CALM      30.21R
MICHIGAN CITY* MOSUNNY   55  46  71 CALM      30.21R
LAPORTE*       SUNNY     55  49  83 SE3       30.21R
KNOX*          SUNNY     55  49  80 CALM      30.20S
SOUTH BEND     SUNNY     56  48  74 E5        30.21R
GOSHEN         SUNNY     56  49  77 E3        30.20S
MONTICELLO*    MOSUNNY   53  51  93 CALM      30.21R
LOGANSPORT*    PTSUNNY   54  50  87 N5        30.21S
ROCHESTER*     PTSUNNY   54  54 100 NE5       30.22R
WARSAW*        SUNNY     52  50  93 CALM      30.21R
ANGOLA*        MOSUNNY   52  41  66 N3        30.19S
FORT WAYNE     PTSUNNY   54  50  86 N9        30.21R
HUNTINGTON*    CLOUDY    52  52 100 N5        30.20R FOG
PERU/GRISSOM   PTSUNNY   54  54 100 NE3       30.20R
MARION*        PTSUNNY   54  50  85 NE5       30.20R

$$
INZ028>050-161500-
CENTRAL INDIANA

CITY           SKY/WX    TMP DP  RH WIND       PRES   REMARKS
LAFAYETTE      CLOUDY    55  52  89 NW3       30.21S
KOKOMO*        CLOUDY    54  50  87 NE6       30.21R
MUNCIE*        PTSUNNY   55  50  83 CALM      30.19S
INDIANAPOLIS   CLOUDY    54  49  83 N8        30.21R

$$
MIZ043>046-050>051-056>058-064>065-071>073-077>080-161500-
SOUTHWEST LOWER MICHIGAN

CITY           SKY/WX    TMP DP  RH WIND       PRES   REMARKS
BATTLE CREEK   MOSUNNY   51  49  92 CALM      30.19S
BENTON HARBOR  MOSUNNY   54  49  83 CALM      30.19S
COLDWATER*     SUNNY     54  49  85 NE6       30.19S
HILLSDALE*     MOSUNNY   52  50  93 N6        30.19R
HOLLAND        SUNNY     57  51  80 CALM      30.19R
GRAND RAPIDS   MOSUNNY   51  49  92 CALM      30.19R
KALAMAZOO      SUNNY     56  48  74 CALM      30.20R
STURGIS*       SUNNY     52  50  93 CALM      30.19S
THREE RIVERS*  FAIR      55  50  85 CALM      30.20S

$$
OHZ001>008-015>018-024>025-161500-
NORTHWEST OHIO

CITY           SKY/WX    TMP DP  RH WIND       PRES   REMARKS
WAUSEON*       CLOUDY    54  52  94 VRB5      30.19R
DEFIANCE       PTSUNNY   55  50  83 NW5       30.20R
FINDLAY        PTSUNNY   55  50  83 N7        30.18R
TOLEDO EXPRESS MOSUNNY   55  50  83 N6        30.18R
TOLEDO METCALF MOSUNNY   57  49  74 N6        30.18S
LIMA           CLOUDY    56  51  84 N5        30.18S

$$
&&



USA.gov is the U.S. government's official web portal to all federal, state and local government web resources and services.